Regional Weather Roundup
Issued by NWS Goodland, KS

Home | Current Version | Previous Version | Graphics & Text | Print | Product List | Glossary On
Versions: 1 2 3 4 5 6 7 8 9 10 11 12 13 14 15 16 17 18 19 20 21 22 23 24 25 26 27 28 29 30 31 32 33 34 35 36 37 38 39 40 41 42 43 44 45 46 47 48 49 50
080
ASUS43 KGLD 172208
RWRGLD

GOODLAND FORECAST AREA HOURLY WEATHER ROUNDUP
NATIONAL WEATHER SERVICE GOODLAND KS
400 PM MDT TUE OCT 17 2017

...OFFICIAL OBSERVATIONS...

CITY           SKY/WX    TMP DP  RH WIND       PRES   REMARKS
GOODLAND KS    SUNNY     79  28  15 S9        30.06S
HILL CITY KS   SUNNY     81  33  17 S6        30.02F
IMPERIAL NEB   SUNNY     80  13   8 SW10G20   30.02F
MCCOOK NEB     SUNNY     80  29  15 S9        30.01F
AKRON CO       SUNNY     78  10   7 S8        30.07F
BURLINGTON CO  SUNNY     79  19  10 SE8       30.09F
LIMON CO       SUNNY     73  14  10 S10       30.14S
$$

...UNOFFICIAL OBSERVATIONS...

CITY           SKY/WX    TMP DP  RH WIND       PRES   REMARKS
YUMA CO        FAIR      77  21  12 S12       30.06S
$$




USA.gov is the U.S. government's official web portal to all federal, state and local government web resources and services.